Location: Unspecified
(0.0000°N, 0.0000°E)
Time: 05:33:36
(UTC+02:00)

NOAA 12 - Visible Passes

Search period start: 25 June 2016 00:00
Search period end: 05 July 2016 00:00
Orbit: 796 x 815 km, 98.6° (Epoch: 24 June)

Date Brightness Start Highest point End Pass type
(mag) Time Alt. Az. Time Alt. Az. Time Alt. Az.
25 Jun 4.4 21:22:28 10° S 21:27:43 65° WSW 21:32:58 10° NNW visible
26 Jun 4.1 20:57:35 10° SSE 21:02:50 63° ENE 21:08:04 10° N visible
27 Jun 4.9 20:33:17 10° SE 20:37:57 32° ENE 20:42:36 10° NNE visible
27 Jun 6.6 22:14:13 10° SW 22:17:27 16° WSW 22:20:41 10° WNW visible
28 Jun 5.7 21:47:53 10° SSW 21:52:35 32° WSW 21:57:16 10° NW visible
29 Jun 4.5 21:22:27 10° S 21:27:42 65° WSW 21:32:57 10° NNW visible
30 Jun 4.1 20:57:34 10° SSE 21:02:49 64° ENE 21:08:03 10° N visible
01 Jul 4.9 20:33:15 10° SE 20:37:56 32° ENE 20:42:35 10° NNE visible
01 Jul 6.6 22:14:12 10° SW 22:17:26 16° WSW 22:20:40 10° WNW visible
02 Jul 5.7 21:47:52 10° SSW 21:52:34 32° WSW 21:57:15 10° NW visible
03 Jul 4.5 21:22:25 10° S 21:27:41 65° WSW 21:32:56 10° NNW visible
04 Jul 4.1 20:57:32 10° SSE 21:02:48 64° ENE 21:08:02 10° N visible
